[[{"header":{"parameterUnit":"m.s-1","parameterCategory":1,"la1":30.2992,"la2":30.254,"lo1":-89.0895,"lo2":-89.0443,"dy":0.0025,"dx":0.0025,"nx":19,"ny":19,"refTime":"2026-04-24T03:00:00:Z","depth":0,"parameterNumber":2,"parameterNumberName":"U-component_of_WINDS"},"data":[0,0,0,-4.0095,-4.0097,-4.018,-4.018,-4.0299,-4.03,0,0,0,0,0,0,0,0,0,0,0,-4.0079,-4.008,-4.0095,-4.0098,-4.018,-4.018,-4.0299,-4.03,0,0,0,0,0,0,0,0,0,0,0,-4.0078,-4.008,-4.0081,-4.0098,-4.018,-4.018,-4.0299,-4.0231,0,0,0,0,0,0,0,0,0,0,-4.0149,-4.0141,-4.0079,-4.0081,-4.0098,-4.018,-4.018,-4.0228,-4.0236,-4.0267,0,-4.0297,0,-4.0301,-4.0309,-4.0309,0,0,0,-4.0091,-4.0135,-4.015,-4.0081,-4.0099,-4.018,-4.0141,-4.0232,-4.0241,-4.0277,-4.0299,-4.0303,-4.0303,-4.031,-4.0311,-4.0514,-4.0516,0,0,-4.0087,-4.0098,-4.0144,-4.0156,-4.0145,-4.0138,-4.0144,-4.0237,-4.0261,-4.0299,-4.0306,-4.0305,-4.0311,-4.0312,-4.0513,-4.0515,0,0,0,-4.0078,-4.0095,-4.0107,-4.0152,-4.0166,-4.0141,-4.0147,-4.0257,-4.026,-4.0307,-4.0306,-4.0311,-4.0313,-4.0512,-4.0514,-4.0585,0,0,0,-4.0075,-4.0089,-4.0106,-4.0113,-4.0164,-4.0212,-4.0165,-4.0254,-4.0264,-4.0306,-4.0312,-4.0314,-4.051,-4.0513,-4.058,-4.0616,0,0,0,-4.0071,-4.0089,-4.0104,-4.0114,-4.015,-4.0211,-4.0219,-4.0256,-4.0264,-4.031,-4.0315,-4.0509,-4.0512,-4.0576,-4.0609,-4.0673,0,0,0,-4.0069,-4.0165,-4.0105,-4.0212,-4.0149,-4.0255,-4.0218,-4.0296,-4.0344,-4.0312,-4.0511,-4.0514,-4.0574,-4.0604,-4.0668,-4.0728,-4.0754,0,0,-4.0196,-4.0181,-4.0243,-4.0192,-4.0311,-4.0241,-4.0371,-4.0404,-4.0398,-4.0476,-4.0481,-4.0582,-4.0608,-4.0672,-4.0899,-4.092,0,0,0,-4.0287,-4.0332,-4.0361,-4.0408,-4.0436,-4.0464,-4.0476,-4.0489,-4.0554,-4.0441,-4.0622,-4.0638,-4.0675,-4.0703,-4.072,-4.0751,-4.0527,-4.0527,-4.0527,-4.048,-4.0469,-4.0572,-4.0572,-4.0618,-4.0631,-4.0667,-4.0686,-4.066,-4.0704,-4.0726,-4.0865,-4.0898,-4.0911,-4.0944,-4.0758,-4.0758,-4.0758,-4.0758,-4.0664,-4.0726,-4.0692,-4.078,-4.0768,-4.0841,-4.0859,-4.0839,-4.0905,-4.0847,-4.0879,-4.0814,-4.0935,-4.0962,-4.0764,-4.0763,-4.0762,-4.0762,-4.0761,-4.0788,-4.0816,-4.0831,-4.0898,-4.0952,-4.0949,-4.1015,-4.1002,-4.099,-4.1022,-4.1044,-4.1043,-4.1039,-4.1034,-4.1034,-4.1035,-4.1035,-4.1036,-4.1036,-4.091,-4.0925,-4.0982,-4.1023,-4.1052,-4.1089,-4.1106,-4.1134,-4.1162,-4.1147,-4.1147,-4.1118,-4.0949,-4.0906,-4.1043,-4.1042,-4.1041,-4.104,-4.104,-4.1098,-4.1054,-4.1143,-4.1172,-4.122,-4.1274,-4.1258,-4.1318,-4.134,-4.1373,-4.1338,-4.1216,-4.1198,-4.1184,-4.1148,-4.134,-4.134,-4.134,-4.134,-4.1202,-4.1193,-4.1281,-4.1329,-4.1375,-4.1371,-4.1472,-4.1487,-4.1496,-4.1509,-4.148,-4.1432,-4.1418,-4.1409,-4.139,-4.1356,-4.1597,-4.1597,-4.1597,-4.1317,-4.1312,-4.14,-4.1408,-4.1445,-4.1478,-4.1573,-4.163,-4.1631,-4.1607,-4.1519,-4.1508,-4.1431,-4.1406,-4.1378,-4.1349,-4.1287,0,0]},{"header":{"parameterUnit":"m.s-1","parameterCategory":1,"la1":30.2992,"la2":30.254,"lo1":-89.0895,"lo2":-89.0443,"dy":0.0025,"dx":0.0025,"nx":19,"ny":19,"refTime":"2026-04-24T03:00:00:Z","depth":0,"parameterNumber":3,"parameterNumberName":"V-component_of_WINDS"},"data":[0,0,0,3.296,3.2959,3.2905,3.2904,3.2829,3.2829,0,0,0,0,0,0,0,0,0,0,0,3.2977,3.2976,3.296,3.2959,3.2905,3.2904,3.283,3.2829,0,0,0,0,0,0,0,0,0,0,0,3.2977,3.2976,3.2976,3.2959,3.2905,3.2904,3.283,3.2872,0,0,0,0,0,0,0,0,0,0,3.2925,3.2942,3.2977,3.2976,3.2958,3.2905,3.2904,3.2874,3.2869,3.2853,0,3.2843,0,3.2835,3.2824,3.2824,0,0,0,3.2957,3.2946,3.2931,3.2976,3.2958,3.2905,3.2928,3.2871,3.2866,3.2847,3.2842,3.2839,3.2834,3.2823,3.2823,3.2747,3.2747,0,0,3.296,3.2966,3.2935,3.2928,3.2941,3.293,3.2927,3.2868,3.2861,3.2841,3.2837,3.2832,3.2823,3.2822,3.2747,3.2747,0,0,0,3.297,3.2968,3.2955,3.2931,3.2922,3.2929,3.2925,3.2864,3.2859,3.2836,3.2832,3.2822,3.2821,3.2748,3.2747,3.2741,0,0,0,3.2972,3.2974,3.2957,3.296,3.2923,3.2893,3.2922,3.2863,3.2856,3.2832,3.2822,3.2821,3.2748,3.2747,3.2742,3.2736,0,0,0,3.298,3.2975,3.2968,3.296,3.2938,3.2894,3.2886,3.2861,3.2853,3.2823,3.2821,3.2748,3.2747,3.2743,3.2737,3.2718,0,0,0,3.299,3.2961,3.2968,3.2935,3.2938,3.2892,3.2886,3.285,3.2824,3.2822,3.2748,3.2747,3.2743,3.2738,3.2719,3.2703,3.2697,0,0,3.2957,3.2958,3.2938,3.2942,3.2897,3.29,3.2852,3.282,3.2809,3.2767,3.2765,3.2742,3.2738,3.2718,3.2665,3.266,0,0,0,3.2929,3.2915,3.2901,3.2879,3.2857,3.2836,3.2812,3.28,3.2765,3.2791,3.273,3.2727,3.2715,3.2707,3.2703,3.2692,3.2744,3.2744,3.2744,3.2891,3.2882,3.2848,3.2833,3.2811,3.2787,3.2767,3.2746,3.2741,3.2727,3.2714,3.2683,3.2674,3.2671,3.2659,3.2706,3.2706,3.2706,3.2706,3.2842,3.2819,3.2817,3.2783,3.2772,3.2742,3.2717,3.2715,3.2683,3.2692,3.2681,3.2691,3.2666,3.2656,3.2705,3.2705,3.2705,3.2705,3.2705,3.2814,3.2802,3.2791,3.2759,3.2734,3.2718,3.2689,3.268,3.267,3.266,3.2645,3.2645,3.2642,3.2654,3.2654,3.2654,3.2654,3.2654,3.2654,3.279,3.2778,3.2757,3.2732,3.2717,3.2695,3.2672,3.2655,3.2634,3.2629,3.2629,3.2624,3.2667,3.2677,3.2652,3.2652,3.2652,3.2652,3.2653,3.2741,3.2752,3.2718,3.2703,3.2674,3.2649,3.2639,3.2606,3.2591,3.2576,3.2575,3.2609,3.2607,3.2609,3.2618,3.2578,3.2578,3.2578,3.2578,3.2717,3.2717,3.2682,3.2658,3.2634,3.2623,3.2582,3.2563,3.2544,3.2533,3.2538,3.2548,3.2552,3.2548,3.2552,3.2559,3.2506,3.2506,3.2506,3.2686,3.2684,3.2652,3.2639,3.2615,3.2593,3.2554,3.2524,3.2505,3.2502,3.2524,3.2527,3.2544,3.2551,3.2547,3.2554,3.2567,0,0]}]]